Flag for Germany Weather past 2 weeks in Frankfurt an der Oder, Brandenburg, Germany

Now
54 °F

Overcast.


Feels Like: 51 °F
Forecast: 40 / 43 °F
Wind: 9 mph from Southwest

Location: Lindenberg

Current Time: Dec 19, 2014 at 9:17:02 AM

Latest Report: Dec 19, 2014 at 9:00 AM


Visibility: 31 mi

Pressure: 29.74 "Hg

Humidity: 81%

Dew point: 48 °F

Location of Frankfurt an der OderLocation

Historic Weather in Frankfurt an der Oder — Graph

°F

Frankfurt an der Oder temperature yesterday

Maximum temperature yesterday: 51 °F (at 11:00 PM)
Minimum temperature yesterday: 39 °F (at 12:00 AM)
Average temperature yesterday: 46 °F

Past Weeks' High & Low Weather Summary

 TemperatureHumidityPressure
High53 °F (Dec 19, 2:00 AM)100% (Dec 5, 6:00 PM)30.40 "Hg (Dec 5, 6:00 PM)
Low27 °F (Dec 9, 8:00 AM)66% (Dec 13, 3:00 PM)29.41 "Hg (Dec 12, 8:00 PM)
Average38 °F90%29.95 "Hg
* Reported Dec 4 8:00 AM — Dec 19 8:00 AM, Frankfurt an der Oder, Weather by CustomWeather, © 2014

Note: Actual official high and low records may vary slightly from our data, if they occured in-between our weather recording intervals... More about our weather records

Advertising

Frankfurt an der Oder weather history for previous 24 hours

 ConditionsComfort  
Time TempWeatherWind HumidityBarometerVisibility
8:00 AM
Dec 19
53 °FOvercast.9 mph87%29.73 "Hg31 mi
7:00 AM52 °FOvercast.8 mph92%29.74 "Hg31 mi
6:00 AM53 °FDrizzle. Overcast.9 mph93%29.74 "Hg12 mi
5:00 AM52 °FDrizzle. Low clouds.9 mph96%29.74 "Hg7 mi
3:00 AM52 °FDrizzle. Overcast.8 mph96%29.75 "Hg6 mi
2:00 AM53 °FOvercast.9 mph92%29.73 "Hg16 mi
1:00 AM52 °FOvercast.8 mph95%29.73 "Hg6 mi
12:00 AM52 °FDrizzle. Overcast.9 mph97%29.73 "Hg5 mi
11:00 PM
Dec 18
51 °FOvercast.9 mph95%29.72 "Hg12 mi
9:00 PM50 °FLight rain. Overcast.8 mph97%29.73 "Hg6 mi
8:00 PM49 °FLight rain. Overcast.7 mph95%29.73 "Hg9 mi
7:00 PM50 °FLight rain. Overcast.6 mph90%29.74 "Hg19 mi
6:00 PM49 °FOvercast.6 mph94%29.75 "Hg16 mi
5:00 PM49 °FOvercast.6 mph94%29.76 "Hg9 mi
3:00 PM49 °FOvercast.6 mph88%29.77 "Hg19 mi
2:00 PM49 °FOvercast.7 mph89%29.78 "Hg9 mi
1:00 PM47 °FOvercast.6 mph95%29.80 "Hg6 mi
12:00 PM48 °FFog.7 mph91%29.82 "Hg4 mi
11:00 AM46 °FFog.6 mph93%29.82 "Hg2 mi
9:00 AM44 °FFog.5 mph94%29.83 "Hg2 mi
Weather by CustomWeather, © 2014

See weather overviewHow to use our weather pages